Temp
70 64 61 67 68 69 65 63 62 68 68 63 65 67 72 71 69 69 68 67 66 65 68 66 65 64 64 62 62 61 59 58 61 63 64 64 61 59 58 57 53 52 52 50
64 57 68 71 66 64 63 60 61 67 68 63 64 65 71 75 68 71 70 68 66 66 64 62 62 62 61 61 61 60 59 59 61 65 62 62 62 58 57 56 53 51 50 49
59 65 67 65 62 59 61 59 60 60 65 66 62 60 66 72 70 70 70 69 68 65 61 60 59 60 61 60 59 60 59 58 57 56 60 59 57 57 57 57 56 51 49 47
63 68 64 63 60 62 56 66 61 59 56 52 61 51 65 68 63 63 65 65 67 66 64 61 61 60 61 61 60 60 58 57 55 55 56 55 60 58 53 55 52 53 48 48
59 59 59 59 61 64 58 65 60 60 57 56 57 50 63 67 61 59 63 64 65 65 63 61 60 62 63 60 58 58 57 55 53 52 53 55 53 53 54 55 51 49 49 48
59 66 63 63 64 64 64 58 56 56 55 45 55 55 57 64 63 65 66 64 63 62 62 61 62 62 61 60 58 56 55 52 51 51 50 50 49 50 53 51 53 51 50 49
58 58 63 64 58 60 60 53 43 42 41 44 57 54 57 63 63 66 65 64 63 62 60 59 59 59 58 57 55 55 52 48 49 50 50 48 48 48 47 48 49 47 48 48
49 48 59 64 60 58 56 55 46 37 41 49 53 47 57 61 61 62 63 63 63 61 60 59 58 58 57 54 53 51 50 49 50 48 47 47 47 50 48 46 48 47 47 46
47 48 59 60 63 61 55 50 59 46 49 41 49 57 63 60 59 58 59 61 60 60 59 57 57 57 55 51 45 50 51 50 48 48 47 46 47 46 46 45 46 47 45 45
48 41 58 60 61 61 57 61 43 45 31 33 46 50 49 50 57 58 50 55 56 58 58 57 53 56 56 37 43 50 50 48 48 47 47 47 46 46 46 46 44 43 44 43
49 42 47 53 52 52 51 48 51 51 47 35 34 43 60 56 54 59 43 46 53 54 54 56 47 55 53 43 39 42 48 46 45 47 47 46 45 45 45 44 42 42 42 42
48 40 38 46 56 60 57 52 53 40 38 44 40 39 61 59 60 60 56 43 49 53 46 52 50 48 47 44 43 35 41 34 40 45 45 44 44 44 43 41 41 41 39 41
42 37 34 42 52 54 50 53 53 48 46 37 32 38 58 58 58 57 57 51 46 51 45 44 44 46 37 44 36 34 35 39 40 35 37 42 41 41 35 35 38 37 36 37
43 35 34 32 39 42 39 46 47 42 33 37 40 45 54 57 55 52 54 53 50 49 43 40 40 42 42 45 37 42 42 43 41 38 33 32 32 31 32 33 31 31 32 32
44 32 38 40 43 44 43 39 42 39 41 33 39 43 52 57 56 55 59 55 53 50 49 46 44 43 43 46 43 46 45 44 44 42 39 35 31 31 31 30 30 30 30 30
48 34 39 34 43 43 39 41 43 43 44 43 45 45 57 57 59 55 57 56 54 54 53 51 49 47 45 46 46 46 45 45 45 42 42 41 38 37 34 34 34 34 30 30
42 38 34 30 42 40 30 35 40 45 47 46 39 49 56 56 53 54 58 57 57 57 55 53 51 49 47 48 47 46 46 47 43 43 44 42 41 40 39 40 39 37 36 35
40 37 35 31 36 22 43 54 53 49 50 51 49 52 55 57 59 57 61 60 60 59 56 53 48 48 49 50 49 48 48 45 42 44 44 43 42 41 41 41 40 39 39 37
47 40 31 28 32 39 44 50 49 44 46 55 52 54 56 55 54 52 56 58 61 58 57 54 50 46 49 49 49 48 46 44 44 43 42 43 43 42 41 40 39 39 39 37
46 41 31 31 26 25 43 50 55 54 38 56 56 54 53 54 43 50 56 57 59 59 59 55 52 51 50 48 49 47 45 43 43 43 41 40 43 41 40 39 37 39 37 34
35 32 29 31 27 32 50 51 54 36 39 52 53 55 56 50 55 58 57 55 58 59 57 56 53 51 51 50 48 47 46 42 44 44 43 41 41 37 36 36 38 36 35 34
37 32 32 33 28 28 48 49 41 44 48 49 53 54 53 56 53 55 55 52 54 53 52 53 51 50 50 51 49 48 45 46 47 45 43 41 41 40 39 35 34 34 32 29
32 41 38 38 38 46 49 46 51 50 46 49 49 55 54 53 51 52 48 51 54 54 53 53 52 48 49 50 50 47 47 47 46 44 43 42 41 40 39 37 33 34 34 32
44 48 40 39 44 47 49 46 44 47 49 51 52 53 53 52 53 52 52 53 53 54 53 53 50 47 46 48 49 49 48 47 45 43 42 42 40 39 39 38 37 36 34 33
45 46 42 42 47 50 50 48 46 46 52 53 56 54 55 57 55 56 55 53 54 53 52 51 49 48 46 48 47 49 46 46 43 43 42 40 40 37 37 37 37 36 35 35
48 44 40 38 49 48 49 52 53 49 50 52 53 52 50 54 54 52 54 54 54 52 51 49 50 49 48 46 46 47 47 46 44 41 40 39 37 37 37 36 33 29 30 28
MSLP
1008.95 1008.32 1007.29 1006.95 1007.03 1006.74 1006.17 1005.82 1005.35 1005.17 1005.75 1006.15 1005.38 1005.27 1005.30 1006.39 1007.48 1007.89 1008.70 1009.82 1010.98 1012.25 1013.78 1015.24 1016.20 1017.12 1017.71 1018.61 1019.28 1019.91 1020.53 1020.98 1020.97 1020.91 1020.93 1021.13 1021.24 1021.79 1022.25 1022.65 1023.26 1023.34 1023.41 1023.32
1008.47 1007.26 1006.72 1006.86 1007.46 1007.21 1006.83 1006.08 1005.46 1005.64 1005.93 1006.36 1005.32 1004.38 1004.31 1004.56 1006.04 1006.52 1007.32 1008.65 1010.02 1011.62 1013.31 1015.00 1016.14 1017.04 1017.69 1018.46 1019.13 1019.86 1020.44 1020.87 1021.02 1021.03 1021.44 1021.54 1021.73 1022.20 1022.53 1022.95 1023.38 1023.74 1023.56 1023.62
1006.95 1006.09 1006.86 1006.59 1007.06 1007.01 1006.39 1006.12 1005.94 1006.12 1006.28 1006.10 1005.43 1003.47 1003.13 1003.40 1005.10 1005.88 1006.86 1008.24 1009.72 1011.03 1012.86 1014.51 1015.65 1016.56 1017.41 1018.27 1019.08 1019.68 1020.35 1020.91 1021.39 1021.46 1021.51 1021.92 1022.25 1022.45 1022.31 1022.55 1022.88 1023.43 1023.59 1023.54
1006.42 1006.24 1006.40 1006.45 1006.27 1006.62 1005.62 1005.76 1006.45 1006.71 1006.82 1005.54 1005.47 1002.12 1001.55 1002.25 1004.40 1005.70 1006.68 1007.82 1009.00 1010.61 1012.50 1014.06 1015.14 1016.05 1016.90 1017.88 1018.95 1019.73 1020.40 1021.05 1021.68 1021.89 1021.71 1021.80 1021.60 1021.61 1022.36 1023.05 1023.25 1023.34 1023.80 1023.54
1005.67 1005.99 1006.11 1005.75 1005.70 1006.53 1006.10 1006.10 1006.74 1006.58 1006.27 1005.69 1004.97 1004.59 1000.57 1001.76 1003.24 1004.92 1005.97 1007.13 1008.40 1009.76 1011.53 1013.28 1014.56 1015.43 1016.48 1017.85 1018.93 1019.83 1020.54 1021.06 1021.71 1022.12 1022.20 1022.18 1022.22 1022.36 1022.75 1023.02 1023.23 1023.21 1023.37 1023.29
1006.60 1006.47 1006.29 1005.75 1005.84 1006.30 1007.09 1007.05 1007.18 1007.10 1006.56 1004.82 1004.33 1003.55 998.88 1000.96 1001.56 1003.24 1004.71 1006.35 1008.09 1009.61 1011.21 1012.78 1014.10 1014.96 1016.09 1017.48 1018.58 1019.70 1020.33 1021.24 1021.86 1022.35 1022.46 1022.61 1022.33 1022.37 1022.49 1022.90 1022.90 1022.88 1023.36 1023.43
1006.05 1005.70 1006.22 1006.34 1006.08 1006.34 1006.65 1006.84 1006.41 1006.28 1005.88 1003.52 1003.15 1002.77 1001.10 1002.08 1002.82 1003.42 1004.65 1006.08 1007.69 1009.15 1010.66 1012.20 1013.52 1014.70 1015.89 1017.11 1018.38 1019.44 1020.58 1021.37 1021.89 1022.25 1022.49 1022.88 1022.83 1022.86 1023.03 1023.17 1023.20 1022.96 1023.14 1023.47
1006.63 1005.12 1005.26 1005.28 1005.66 1005.42 1005.99 1005.84 1005.18 1004.32 1003.94 1003.08 1003.80 1002.06 1001.40 1002.76 1003.77 1004.75 1005.42 1006.35 1007.71 1009.03 1010.50 1011.85 1013.01 1014.40 1015.75 1017.18 1018.37 1019.60 1020.34 1021.07 1021.82 1022.26 1022.72 1023.14 1023.18 1023.20 1023.50 1023.77 1023.79 1023.50 1023.49 1023.87
1007.28 1006.38 1006.34 1006.13 1005.62 1006.00 1005.62 1005.46 1005.81 1005.67 1005.20 1005.05 1003.36 1002.06 1001.79 1003.20 1004.33 1004.93 1005.59 1006.67 1007.63 1008.98 1010.29 1011.57 1013.05 1014.13 1015.65 1017.24 1018.59 1019.32 1019.96 1020.90 1021.82 1022.15 1022.41 1022.87 1023.35 1023.49 1023.66 1023.98 1024.07 1023.95 1024.21 1024.47
1009.85 1008.34 1006.61 1006.16 1005.98 1005.72 1005.71 1005.81 1006.23 1006.37 1005.66 1004.39 1002.97 1002.40 1001.77 1003.16 1004.04 1005.17 1006.19 1006.91 1007.91 1009.24 1010.41 1011.71 1013.23 1014.13 1015.50 1017.86 1019.10 1019.52 1020.17 1020.87 1021.81 1022.21 1022.57 1022.94 1023.11 1023.54 1023.87 1024.28 1024.61 1024.42 1024.69 1024.91
1011.18 1010.64 1008.03 1007.65 1006.08 1005.58 1006.29 1006.06 1006.24 1006.07 1005.50 1004.89 1003.74 1002.46 1002.10 1003.04 1003.90 1004.56 1006.63 1007.78 1008.34 1009.29 1010.43 1011.68 1013.57 1014.47 1015.89 1018.21 1019.13 1019.81 1020.22 1021.21 1021.77 1022.28 1022.88 1022.88 1023.33 1023.88 1024.19 1024.74 1024.95 1025.08 1025.16 1025.28
1011.94 1012.03 1009.90 1007.86 1007.14 1006.45 1006.53 1005.95 1005.92 1006.14 1005.83 1005.65 1005.03 1003.53 1002.85 1003.69 1004.33 1004.68 1006.10 1008.16 1008.84 1009.68 1010.89 1011.93 1013.54 1014.72 1016.22 1017.86 1018.98 1019.88 1020.61 1021.45 1022.06 1022.52 1022.80 1023.10 1023.82 1024.10 1024.50 1025.16 1025.45 1025.56 1025.67 1025.62
1012.76 1012.33 1010.61 1008.37 1007.40 1006.77 1006.90 1006.83 1006.85 1007.32 1006.99 1006.27 1005.99 1003.70 1003.66 1003.84 1004.76 1005.01 1005.80 1007.49 1008.84 1009.64 1011.41 1012.39 1013.77 1014.96 1016.75 1017.70 1018.89 1020.01 1020.71 1021.57 1022.39 1023.10 1023.10 1023.57 1023.94 1024.55 1025.32 1025.92 1026.05 1026.34 1026.42 1026.24
1013.55 1012.71 1012.00 1010.68 1008.92 1009.01 1008.65 1007.70 1008.23 1008.62 1008.03 1005.97 1005.38 1004.24 1003.02 1003.59 1004.61 1005.06 1005.66 1006.69 1008.22 1009.27 1011.32 1012.84 1013.91 1015.04 1016.40 1017.38 1018.79 1019.35 1020.08 1020.95 1022.11 1023.06 1023.45 1024.28 1024.75 1025.29 1025.73 1026.49 1026.87 1027.16 1027.18 1027.06
1012.81 1012.18 1012.03 1011.05 1010.15 1009.45 1009.15 1008.65 1008.22 1008.36 1007.74 1006.82 1005.51 1004.56 1002.78 1003.22 1003.82 1004.71 1005.15 1006.51 1007.67 1008.58 1009.99 1011.42 1012.84 1014.31 1015.46 1016.43 1017.77 1018.51 1019.34 1020.37 1021.23 1022.11 1023.08 1024.01 1024.94 1025.39 1025.97 1026.67 1026.98 1027.36 1027.32 1027.42
1011.67 1011.55 1011.38 1010.72 1009.72 1009.34 1008.75 1007.89 1007.35 1007.19 1006.41 1005.74 1004.97 1003.26 1003.12 1003.39 1003.58 1004.28 1004.56 1005.36 1005.96 1007.23 1008.30 1010.08 1011.68 1013.02 1014.26 1015.30 1016.51 1017.62 1018.65 1019.53 1020.42 1021.42 1022.08 1023.13 1024.30 1025.02 1025.76 1026.23 1026.56 1026.91 1027.26 1027.39
1011.31 1011.42 1011.25 1010.03 1009.04 1008.40 1007.65 1006.20 1006.00 1005.08 1004.41 1004.34 1003.69 1001.97 1002.01 1002.04 1002.74 1003.01 1003.04 1003.72 1004.57 1005.55 1007.03 1008.74 1010.17 1011.60 1013.09 1014.23 1015.66 1016.71 1017.85 1018.78 1019.87 1020.65 1021.26 1022.39 1023.41 1024.06 1024.69 1025.19 1025.72 1026.09 1026.47 1026.82
1010.73 1011.05 1011.08 1009.85 1008.80 1006.90 1005.00 1004.15 1003.68 1003.26 1002.73 1002.47 1002.63 1001.20 1001.41 1001.12 1001.87 1002.63 1002.60 1002.84 1003.60 1004.86 1006.45 1008.19 1009.86 1011.19 1012.39 1013.72 1015.09 1016.25 1017.34 1018.32 1019.38 1020.04 1020.81 1021.90 1022.73 1023.24 1024.04 1024.64 1025.05 1025.53 1025.88 1026.18
1009.48 1009.90 1009.87 1009.31 1007.59 1005.63 1004.28 1003.34 1002.72 1002.83 1001.60 1001.16 1000.95 1000.60 1000.72 1001.76 1002.61 1003.05 1003.20 1003.35 1003.56 1004.83 1006.26 1007.73 1009.62 1011.11 1012.09 1013.12 1014.34 1015.59 1016.70 1017.83 1018.64 1019.37 1020.28 1021.30 1022.06 1022.60 1023.48 1024.12 1024.68 1025.21 1025.65 1026.04
1008.36 1008.88 1009.44 1008.24 1007.04 1004.84 1002.91 1002.86 1002.72 1002.35 1001.20 1000.95 1000.49 1000.27 1000.64 1001.55 1002.03 1001.77 1002.56 1003.36 1003.85 1004.91 1006.11 1007.61 1009.34 1010.70 1011.85 1013.14 1013.91 1014.93 1016.05 1017.06 1017.83 1018.96 1020.23 1020.99 1021.60 1022.27 1023.10 1023.92 1024.68 1025.15 1025.69 1026.26
1007.83 1008.31 1008.01 1007.36 1006.56 1005.27 1003.52 1003.24 1003.12 1002.83 1002.63 1001.80 1001.28 1000.69 1000.75 1001.30 1001.33 1001.77 1002.81 1003.80 1004.47 1005.16 1006.38 1007.89 1009.23 1010.19 1011.34 1012.67 1013.62 1014.45 1015.54 1016.55 1017.59 1018.83 1020.06 1020.87 1021.59 1022.52 1023.45 1024.12 1024.72 1025.22 1025.63 1026.17
1006.35 1006.63 1006.22 1006.16 1005.70 1004.70 1004.54 1003.86 1003.89 1004.13 1003.40 1003.12 1002.50 1001.90 1001.55 1001.64 1002.48 1002.68 1003.40 1004.24 1004.96 1005.71 1007.24 1008.22 1009.00 1010.15 1011.26 1012.44 1013.30 1013.95 1015.00 1016.39 1017.44 1018.61 1019.59 1020.51 1021.43 1022.40 1023.25 1024.15 1024.88 1025.31 1025.85 1026.48
1006.42 1005.62 1005.14 1005.19 1004.59 1004.79 1005.02 1005.15 1005.06 1004.91 1004.73 1003.91 1003.67 1002.62 1002.37 1002.39 1002.82 1003.34 1004.17 1004.79 1005.27 1006.21 1007.30 1008.21 1009.10 1010.13 1011.35 1012.38 1013.03 1013.72 1014.73 1015.96 1017.17 1018.24 1019.09 1020.06 1021.14 1022.11 1022.86 1023.65 1024.56 1024.92 1025.36 1025.83
1005.52 1005.34 1005.24 1005.18 1004.46 1004.42 1004.59 1005.10 1005.64 1005.61 1004.90 1004.23 1003.76 1003.24 1002.82 1002.67 1002.93 1003.62 1004.36 1004.81 1005.59 1006.49 1007.30 1007.98 1009.37 1010.25 1011.28 1012.26 1013.01 1013.77 1014.76 1015.84 1016.93 1017.86 1018.85 1019.89 1020.88 1021.78 1022.54 1023.17 1023.86 1024.21 1024.82 1025.34
1005.27 1005.17 1004.61 1004.17 1004.03 1004.04 1004.33 1004.80 1004.96 1005.14 1004.48 1003.93 1003.46 1003.42 1002.97 1002.67 1003.03 1003.50 1004.16 1004.92 1005.50 1006.29 1007.36 1008.26 1009.12 1010.07 1011.10 1012.16 1012.99 1013.70 1014.93 1015.76 1016.68 1017.66 1018.67 1019.71 1020.64 1021.60 1022.22 1022.88 1023.49 1024.04 1024.78 1025.15
1005.06 1004.48 1004.16 1003.81 1003.68 1003.84 1003.98 1004.12 1004.19 1004.15 1004.06 1003.65 1003.54 1003.45 1003.62 1003.49 1003.61 1004.20 1004.48 1004.87 1005.36 1006.42 1007.43 1008.23 1008.84 1009.86 1010.92 1012.01 1012.89 1013.76 1014.72 1015.55 1016.36 1017.39 1018.42 1019.38 1020.39 1021.12 1021.91 1022.69 1023.87 1025.15 1025.50 1026.21
Wind_Speed
12 11 14 14 15 18 11 12 13 9 5 6 13 15 17 15 15 15 17 19 20 20 18 16 14 13 12 11 10 8 7 6 4 3 2 2 3 4 4 5 7 7 7 8
16 19 18 15 13 15 16 16 16 15 9 11 16 20 19 17 20 21 22 21 21 20 19 17 16 14 13 12 10 9 8 6 3 2 3 2 2 4 5 4 5 7 7 8
24 11 4 13 16 16 18 17 15 14 8 14 16 25 26 23 18 19 16 17 19 21 21 20 18 16 14 13 11 9 8 7 5 4 4 3 3 2 3 3 3 5 6 7
20 22 26 19 19 16 19 14 12 16 12 12 2 13 8 8 17 17 17 17 19 21 21 20 19 17 15 13 11 10 8 7 5 2 4 1 1 2 4 2 4 3 6 7
8 8 16 23 24 16 15 7 11 12 15 16 16 10 6 5 15 16 19 19 20 21 22 21 20 18 15 14 12 10 9 8 7 5 3 3 3 4 3 2 2 4 5 7
15 3 6 11 8 13 5 7 7 7 9 14 16 16 21 15 17 14 16 18 19 20 21 21 20 18 15 14 13 11 11 9 7 6 5 3 5 4 3 4 2 4 4 4
10 19 14 10 9 6 15 11 5 9 8 11 2 13 16 3 4 6 12 17 19 21 22 22 22 19 17 17 15 11 10 9 8 7 6 5 6 5 6 3 4 4 4 5
8 8 13 17 20 13 20 17 10 11 12 13 9 12 7 4 3 4 4 11 16 19 20 23 22 19 18 17 15 13 12 10 8 8 7 5 5 4 4 5 4 5 5 5
5 9 2 4 12 15 12 16 16 20 22 13 15 20 11 9 9 10 9 12 16 19 21 22 22 19 17 16 13 15 13 11 10 9 8 7 6 6 6 6 4 4 5 5
8 10 13 12 8 11 16 4 6 10 7 19 14 17 12 6 13 11 10 14 15 17 19 20 17 18 16 11 11 13 12 12 11 9 8 6 7 7 7 5 5 6 5 5
11 3 3 6 9 12 9 13 13 11 14 13 16 14 8 5 12 14 9 10 15 17 17 19 15 17 15 14 10 10 12 12 11 9 8 8 8 7 7 6 5 5 5 5
8 6 12 16 13 15 15 16 17 13 13 12 14 17 2 4 5 7 10 12 11 15 11 15 18 14 15 17 15 9 10 8 9 10 10 9 8 7 7 6 6 5 4 5
3 5 7 11 12 5 13 16 13 12 11 18 14 10 2 3 7 4 8 12 13 13 13 9 15 17 12 16 11 12 11 13 11 6 5 10 9 8 8 6 6 6 5 6
1 2 7 14 15 11 11 11 10 11 6 12 18 21 23 13 9 7 8 10 14 15 13 13 13 13 16 15 13 15 15 14 14 13 8 8 8 8 8 6 5 5 5 6
6 7 15 20 21 21 21 19 23 23 20 12 14 17 23 17 11 5 3 7 13 17 18 19 18 16 16 17 16 16 15 15 15 14 13 11 9 9 8 7 6 5 5 5
12 12 14 21 20 20 24 22 25 26 27 25 24 28 22 17 16 13 19 17 20 19 19 19 19 19 19 19 18 17 17 16 16 15 14 14 13 12 10 10 9 8 6 6
14 10 10 17 16 17 14 25 25 29 24 21 22 32 25 21 15 18 18 19 21 21 20 20 20 19 18 18 18 18 18 17 16 15 14 14 13 12 11 10 9 8 8 6
19 17 12 14 16 19 18 19 17 21 24 22 23 29 22 12 7 6 9 15 19 16 16 15 13 14 16 17 18 17 17 17 16 15 14 14 13 13 11 10 8 7 7 6
21 18 12 14 15 18 24 23 20 14 21 21 23 24 16 9 4 16 12 11 14 15 13 14 14 13 16 18 19 18 17 17 16 15 14 14 14 13 12 10 9 7 7 6
14 16 10 10 14 16 17 5 8 10 18 18 14 15 14 14 12 11 10 11 12 15 15 15 17 16 16 17 18 18 18 17 16 15 14 11 13 12 12 10 9 7 7 6
6 6 14 13 10 5 14 6 6 13 4 13 9 7 10 13 10 1 13 13 14 15 16 16 16 15 16 17 17 17 17 15 15 15 15 13 11 10 9 10 9 7 7 6
11 7 7 9 7 11 12 4 8 9 8 12 11 5 6 7 1 8 14 14 15 16 15 14 14 13 14 16 16 16 16 16 15 15 15 14 13 10 10 12 9 9 7 6
6 11 6 5 3 5 5 6 12 9 11 17 15 8 5 7 6 12 13 14 13 14 13 12 12 14 13 15 15 16 15 17 16 15 15 14 13 12 12 12 10 8 8 6
5 7 6 5 2 6 7 2 6 11 14 14 16 13 7 10 10 13 13 12 12 11 12 12 14 14 14 14 14 14 16 17 16 15 14 13 13 12 11 9 9 7 7 6
5 3 8 11 11 11 5 8 7 11 18 17 12 10 8 9 12 13 11 11 9 11 11 12 13 14 15 15 15 15 16 17 15 14 13 13 11 12 11 9 7 6 5 4
11 12 8 9 8 6 9 5 9 7 9 13 11 4 1 4 6 3 6 8 10 11 12 13 13 14 15 16 16 16 17 17 15 14 12 11 11 10 9 9 7 9 9 9
Wind_Direction
204 228 227 241 235 269 284 268 262 257 163 261 240 251 253 190 211 205 202 196 193 192 178 171 163 157 149 145 152 148 135 132 165 157 156 147 85 83 66 47 38 24 19 10
231 237 245 259 261 253 254 256 252 261 246 252 257 256 253 245 209 211 205 201 197 187 177 177 168 164 163 159 155 147 139 125 110 115 75 30 60 74 56 48 51 29 25 13
232 238 211 253 237 238 239 254 264 267 293 260 271 268 250 235 218 223 215 211 200 193 183 179 175 171 167 166 162 155 140 126 96 88 135 121 112 134 165 93 55 53 27 24
253 252 251 243 239 237 251 244 252 262 262 264 193 285 284 193 214 225 213 210 203 196 190 183 178 172 173 164 158 155 144 132 117 109 116 186 354 135 67 40 54 57 35 35
227 229 227 231 241 232 271 238 240 254 254 265 239 254 269 192 196 208 214 208 204 196 190 184 182 175 171 159 162 158 152 141 129 122 121 183 132 105 98 93 68 60 60 47
259 310 257 242 244 247 255 221 227 233 245 248 239 232 269 237 215 215 204 200 199 194 188 184 183 172 166 165 164 164 163 146 132 136 128 140 117 95 97 63 56 54 40 36
233 232 222 225 210 191 197 194 227 224 210 250 112 227 249 125 115 243 211 195 190 189 186 183 184 175 169 171 170 164 162 148 152 145 134 121 104 95 86 59 51 47 45 33
275 230 200 207 233 216 209 212 233 257 255 275 127 245 260 58 83 194 208 189 185 186 186 189 183 180 172 172 170 165 168 157 156 145 131 125 112 92 85 65 54 54 46 40
304 245 128 225 217 229 239 222 253 266 273 278 262 265 260 179 199 199 195 189 190 189 187 189 181 182 172 175 169 174 166 161 165 153 142 136 125 102 91 79 65 66 52 45
10 282 235 245 221 231 249 269 210 216 242 245 254 255 252 192 230 202 192 197 187 186 188 185 184 180 175 136 180 168 167 167 162 152 146 143 123 103 94 83 74 68 67 47
6 262 250 306 218 243 200 234 235 270 245 261 269 269 324 304 237 220 191 206 186 188 187 183 180 180 169 162 181 165 170 165 161 153 150 137 118 114 103 97 85 80 75 61
297 299 284 273 292 286 275 278 260 239 253 244 257 262 288 313 276 221 194 193 194 191 171 188 175 173 165 169 171 165 156 138 168 156 150 133 127 118 113 97 93 91 90 73
83 209 280 275 249 234 247 258 271 298 288 256 251 255 53 257 260 223 199 183 188 188 164 171 168 181 157 172 169 159 158 162 160 133 139 139 136 121 105 109 94 76 71 66
108 253 277 282 302 339 279 271 285 269 237 259 253 264 256 241 243 215 199 181 184 184 172 170 169 184 176 174 165 173 168 164 164 159 137 132 125 127 124 123 114 103 91 87
240 252 261 261 270 279 268 268 270 268 270 257 275 269 266 270 217 188 297 201 194 187 182 188 184 183 180 179 177 176 171 170 168 166 159 151 141 134 134 139 133 128 116 101
236 249 259 260 257 258 265 263 256 257 258 257 258 266 261 258 233 225 249 223 202 199 188 187 186 185 186 181 179 176 175 175 171 171 168 158 157 154 156 153 158 141 131 125
252 249 253 265 265 272 259 247 249 256 253 249 246 252 258 245 216 218 224 207 203 194 187 186 188 184 183 181 178 179 177 172 174 176 168 166 169 169 165 162 151 152 146 132
244 237 245 263 277 259 268 263 271 268 260 248 246 260 264 268 232 276 256 209 201 181 181 175 175 175 176 175 179 174 175 169 177 177 171 172 176 171 168 167 160 151 145 142
229 238 246 244 252 270 276 270 261 243 262 253 250 256 227 198 255 255 232 230 207 183 172 160 162 162 167 171 171 172 170 174 177 177 176 176 177 170 170 172 163 154 149 130
227 222 224 220 236 249 251 37 335 273 263 276 255 245 224 194 219 230 182 191 175 160 149 146 152 161 163 168 169 168 172 176 177 175 172 170 171 168 170 167 163 158 138 144
202 217 232 238 251 270 282 334 253 224 316 344 321 276 224 204 235 15 152 149 150 141 141 141 152 157 161 162 166 172 172 173 174 166 168 165 162 157 152 159 166 164 149 139
253 240 222 228 242 257 15 264 270 355 327 336 326 310 234 198 145 156 148 140 140 137 141 153 148 151 154 165 171 171 173 166 167 163 164 161 159 161 170 159 167 163 148 155
231 227 284 264 331 353 354 343 331 334 309 305 312 304 262 195 176 161 152 152 144 146 150 151 148 146 154 169 175 171 165 163 161 164 164 162 163 164 170 162 171 174 170 169
250 242 253 294 244 276 296 45 315 281 274 290 297 300 239 209 173 169 160 151 152 152 151 149 151 155 159 170 173 170 159 162 164 165 163 161 167 167 170 172 173 173 177 180
300 215 247 260 277 282 276 243 218 269 281 286 295 301 258 203 172 161 159 156 159 153 155 161 166 163 165 168 170 163 165 163 166 165 165 166 166 176 168 172 172 175 173 179
251 251 258 269 290 303 312 304 261 260 286 287 272 269 119 258 175 169 196 177 161 167 169 174 170 168 164 169 172 164 170 170 167 167 168 169 165 174 169 163 146 62 107 111